Content
SEND FEEDBACK

Daily
Averages
Monthly
Summary
Russia

INDUSTRIAL'NYY, RUSSIA


Home > Europe > Russia
Elevation: 79 feet     Latitude: 52 58N     Longitude: 158 39E

WEATHER
 
SELECT A DAY
Number of Records: 142,562;   Date Range: 7/1/96 - 7/22/14
 
SHARE

PRINT THIS DATA

[ ← Previous Day ]
WEATHER ALMANAC - JANUARY 23, 2013
[ Next Day → ]
[ °C ]   °F
Weather ElementAverageHighLow
Temperature6.1 °F14 °F (3:00 pm)-0.4 °F (1:00 am)
Dewpoint-11.1 °F-9.4 °F (12:30 pm)-13 °F (1:00 am)
Humidity46.1 %55 % (1:00 am)32 % (5:00 pm)
Barometer29.43 in29.56 in (1:00 am)29.36 in (2:30 pm)
Wind Speed8.5 mph11.2 mph (5:00 am)
Weather ElementAverage
Visibility6.2 mi
Wind DirectionNNW (335.9 °)

Weather ElementTotal
Precipitation---
Heating Degree Days58.2 (Base 65)
Averaged from 34 records on January 23, 2013
WEATHER CONDITIONS BREAKOUT
WIND DIRECTION BREAKOUT
WEATHER BY HOUR - JANUARY 23, 2013
[ °C ]   °F
Local TimeTemperatureDewpointHumidityBarometerVisibilityWind DirectionWind SpeedGust SpeedPrecipitationEventsConditions
1:00 AM-0.4 °F-13.0 °F55 %29.56 in6.2 miNorth (10°)6.7 mph
2:00 AM-0.4 °F-13.0 °F55 %29.53 in6.2 miNorth (360°)8.9 mph
3:00 AM-0.4 °F-13.0 °F55 %29.53 in6.2 miNorth (360°)8.9 mph
4:00 AM-0.4 °F-13.0 °F55 %29.50 in6.2 miNorth (360°)8.9 mph
5:00 AM-0.4 °F-13.0 °F55 %29.50 in6.2 miNorth (360°)11.2 mph
6:00 AM-0.4 °F-13.0 °F55 %29.50 in6.2 miNorth (360°)8.9 mph
7:00 AM1.4 °F-13.0 °F51 %29.47 in6.2 miNorth (360°)8.9 mph
7:30 AM-0.4 °F-13.0 °F55 %29.47 in6.2 miNorth (10°)8.9 mph
8:00 AM1.4 °F-13.0 °F51 %29.47 in6.2 miNorth (360°)6.7 mph
8:30 AM1.4 °F-13.0 °F51 %29.47 in6.2 miNorth (360°)6.7 mph
9:00 AM1.4 °F-13.0 °F51 %29.47 in6.2 miNorth (360°)8.9 mph
9:30 AM1.4 °F-13.0 °F51 %29.44 in6.2 miNorth (360°)8.9 mph
10:00 AM1.4 °F-13.0 °F51 %29.44 in6.2 miNorth (360°)8.9 mph
10:30 AM1.4 °F-13.0 °F51 %29.44 in6.2 miNorth (350°)8.9 mph
11:00 AM3.2 °F-11.2 °F51 %29.44 in6.2 miNorth (360°)8.9 mph
11:30 AM5.0 °F-11.2 °F47 %29.42 in6.2 miNorth (360°)8.9 mph
12:00 PM6.8 °F-11.2 °F44 %29.42 in6.2 miNorth (350°)8.9 mph
12:30 PM8.6 °F-9.4 °F44 %29.42 in6.2 miNorth (350°)8.9 mph
1:00 PM10.4 °F-9.4 °F41 %29.39 in6.2 miNorth (350°)11.2 mph
1:30 PM10.4 °F-9.4 °F41 %29.39 in6.2 miNorth (350°)8.9 mph
2:00 PM12.2 °F-9.4 °F38 %29.39 in6.2 miNorth (350°)8.9 mph
2:30 PM12.2 °F-9.4 °F38 %29.36 in6.2 miNorth (360°)8.9 mph
3:00 PM14.0 °F-9.4 °F35 %29.36 in6.2 miNorth (350°)8.9 mph
3:30 PM14.0 °F-9.4 °F35 %29.36 in6.2 miNorth (350°)8.9 mph
4:00 PM14.0 °F-9.4 °F35 %29.36 in6.2 miNorth (350°)6.7 mph
4:30 PM14.0 °F-9.4 °F35 %29.36 in6.2 miNorth (360°)8.9 mph
5:00 PM14.0 °F-11.2 °F32 %29.36 in6.2 miNorth (360°)8.9 mph
5:30 PM12.2 °F-9.4 °F38 %29.36 in6.2 miNorth (350°)6.7 mph
6:00 PM10.4 °F-9.4 °F41 %29.36 in6.2 miNorth (360°)6.7 mph
7:00 PM8.6 °F-9.4 °F44 %29.39 in6.2 miNorth (350°)6.7 mph
8:00 PM8.6 °F-9.4 °F44 %29.39 in6.2 miNorth (350°)6.7 mph
9:00 PM6.8 °F-9.4 °F48 %29.39 in6.2 miNorth (360°)8.9 mph
10:00 PM6.8 °F-9.4 °F48 %29.39 in6.2 miNorth (360°)8.9 mph
11:00 PM6.8 °F-9.4 °F48 %29.39 in6.2 miNorth (360°)8.9 mph
Hourly data recorded from UHPP, located miles away from Industrial'nyy, Russia







STORIES FROM OUR PARTNERS